Regional Weather Roundup
Issued by NWS Spokane, WA

Current Version | Previous Version | Text Only | Print | Product List | Glossary On
Versions: 1 2 3 4 5 6 7 8 9 10 11 12 13 14 15 16 17 18 19 20 21 22 23 24 25 26 27 28 29 30 31 32 33 34 35 36 37 38 39 40 41 42 43 44 45 46 47 48 49 50
000
NZUS01 KOTX 230605
RWROTX

Eastern Washington/Northern Idaho Roundup
National Weather Service, Spokane WA
1100 PM PDT MON MAY 22 2017

Note: "fair" indicated few or no clouds below 12,000 feet with no
significant weather and/or obstructions to visibility.

...Northeast Washington and Northern Idaho Panhandle...

CITY           SKY/WX    TMP DP  RH WIND       PRES   REMARKS
Spokane Intl   PTCLDY    64  48  56 SW6       30.10F
Spokane Downto CLEAR     60  48  64 NE3       30.09S
Coeur d Alene  CLEAR     62  50  64 SE3       30.11S
Deer Park      CLEAR     55  48  77 CALM      30.09F
Sandpoint      CLEAR     52  45  76 CALM      30.10S
Bonners Ferry  FAIR      64  39  39 E6        30.09S

...Southeast Washington and southern Idaho Panhandle...

CITY           SKY/WX    TMP DP  RH WIND       PRES   REMARKS
Walla Walla    CLEAR     66  53  63 E7        30.04S
Pullman/Moscow CLEAR     60  49  66 CALM      30.13S
Lewiston       CLEAR     63  49  60 S7        30.06S
Lowell           N/A     56  51  84 CALM      30.12R
Grangeville    FAIR      55  45  67 CALM      30.15S

...Columbia Basin...

CITY           SKY/WX    TMP DP  RH WIND       PRES   REMARKS
Ephrata        CLEAR     64  43  46 CALM      30.04S
Moses Lake     CLEAR     71  42  35 CALM      30.04F
Pasco          CLEAR     60  54  80 N5        30.01F
Richland       CLEAR     65  55  70 CALM      30.01S
Hermiston      CLEAR     62  49  62 SE6       30.01F
Pendleton      CLEAR     60  51  72 SE7       30.05S

...East Slopes Cascades...

CITY           SKY/WX    TMP DP  RH WIND       PRES   REMARKS
The Dalles     CLEAR     67  52  58 SE5       30.01R
Yakima         CLEAR     66  47  50 W3        30.06S
Ellensburg     CLEAR     63  46  54 SW5       30.08S
Stampede Pass  CLEAR     61  46  57 SW3       30.19F
Wenatchee      CLEAR     72  41  32 CALM      30.04S
Omak           CLEAR     67  46  47 SW3       30.04S
Sunnyside      CLEAR     62  47  58 NE5       30.03S

...Southern British Columbia...

CITY           SKY/WX    TMP DP  RH WIND       PRES   REMARKS

...Western Montana...

CITY           SKY/WX    TMP DP  RH WIND       PRES   REMARKS
Kalispell      CLEAR     50  47  89 CALM      30.12R
Libby            N/A     55  45  67 SE3       30.10S
Missoula       CLEAR     53  40  61 CALM      30.16R

...Neighboring Cities...

CITY           SKY/WX    TMP DP  RH WIND       PRES   REMARKS
Seattle        PTCLDY    69  50  50 N8        30.05F
Portland       PTCLDY    76  51  41 W8        29.97F
Boise          CLEAR     62  39  42 SE5       30.10S
Great Falls    CLEAR     53  39  59 E7        30.20S



USA.gov is the U.S. government's official web portal to all federal, state and local government web resources and services.